Location: Gollag?dem
(16.8053°N, 80.8024°E)
Time: 17:49:01
(UTC+00:00)

IRS-1A Rocket - Pass Details

Date: 13 August 2020
Orbit: 852 x 930 km, 99.2° (Epoch: 18 September)

Event Time Altitude Azimuth Distance (km) Brightness Sun altitude
Exits shadow 14:34:39 35° 152° (SSE) 1,374 4.9 -21.5°
Maximum altitude 14:37:05 73° 76° (ENE) 919 4.2 -22.1°
Drops below altitude 10° 14:42:45 10° 352° (N) 2,558 7.1 -23.3°
Sets 14:45:10 0° 351° (N) 3,511 7.9 -23.8°
